This is the latest recevied weather packets stored in our database for station/object IT9CNT. If no packets are shown the sender has not sent any weather packets the latest 1 day(s).
| Time | Temp. | Humidity | Pressure | Rain* | Wind** | Luminosity | Snow |
|---|---|---|---|---|---|---|---|
| 1777979763 | 18.89° C | 62% | 1014.4 hPa | 0 mm | 3.13 m/s, 150° | - | - |
| 1777979703 | 18.33° C | 61% | 1014.4 hPa | 0 mm | 3.13 m/s, 150° | - | - |
| 1777979643 | 18.89° C | 62% | 1014.4 hPa | 0 mm | 3.13 m/s, 151° | - | - |
| 1777979583 | 18.33° C | 63% | 1014.4 hPa | 0 mm | 2.68 m/s, 149° | - | - |
| 1777979523 | 18.33° C | 63% | 1014.5 hPa | 0 mm | 2.68 m/s, 153° | - | - |
| 1777979463 | 18.33° C | 63% | 1014.4 hPa | 0 mm | 2.68 m/s, 155° | - | - |
| 1777979403 | 18.33° C | 63% | 1014.6 hPa | 0 mm | 3.13 m/s, 166° | - | - |
| 1777979343 | 18.89° C | 64% | 1014.6 hPa | 0 mm | 3.13 m/s, 170° | - | - |
| 1777979283 | 18.33° C | 64% | 1014.6 hPa | 0 mm | 3.13 m/s, 171° | - | - |
| 1777979223 | 18.33° C | 64% | 1014.4 hPa | 0 mm | 3.13 m/s, 178° | - | - |
| 1777979163 | 18.33° C | 64% | 1014.3 hPa | 0 mm | 3.13 m/s, 187° | - | - |
| 1777979104 | 18.33° C | 64% | 1014.3 hPa | 0 mm | 3.58 m/s, 188° | - | - |
| 1777979043 | 18.33° C | 64% | 1014.6 hPa | 0 mm | 3.58 m/s, 181° | - | - |
| 1777978984 | 18.33° C | 64% | 1014.4 hPa | 0 mm | 3.58 m/s, 182° | - | - |
| 1777978923 | 18.33° C | 64% | 1014.4 hPa | 0 mm | 3.58 m/s, 179° | - | - |
| 1777978863 | 18.33° C | 64% | 1014.5 hPa | 0 mm | 3.58 m/s, 181° | - | - |
| 1777978804 | 18.33° C | 65% | 1014.7 hPa | 0 mm | 3.58 m/s, 181° | - | - |
| 1777978743 | 18.33° C | 64% | 1014.4 hPa | 0 mm | 3.58 m/s, 184° | - | - |
| 1777978683 | 18.33° C | 64% | 1014.7 hPa | 0 mm | 3.58 m/s, 183° | - | - |
| 1777978623 | 18.33° C | 65% | 1014.4 hPa | 0 mm | 3.13 m/s, 182° | - | - |
| 1777978564 | 17.78° C | 64% | 1014.5 hPa | 0 mm | 3.13 m/s, 172° | - | - |
| 1777978503 | 18.33° C | 64% | 1014.7 hPa | 0 mm | 3.13 m/s, 162° | - | - |
| 1777978444 | 17.78° C | 64% | 1014.4 hPa | 0 mm | 3.13 m/s, 160° | - | - |
| 1777978383 | 18.33° C | 65% | 1014.5 hPa | 0 mm | 3.58 m/s, 150° | - | - |
| 1777978323 | 17.78° C | 64% | 1014.4 hPa | 0 mm | 3.58 m/s, 150° | - | - |
* Rain latest hour (hover to see other rain measurements)
** Current wind speed in m/s (hover to see current wind gust speed)